TITAN 3C TRANSTAGE R/B, 1863

Orbit data source: Space-Track

TITAN 3C TRANSTAGE R/B, 1863 is space debris in HEO originally from a launch on Tue, 21 Dec 1965 UTC launched from the Air Force Eastern Test Range (AFETR). Debris objects in space refer to the collection of defunct objects orbiting the Earth. Examples of debris include non-operational satellites, rocket bodies, and fragments generated from explosions, collisions, or faulty payload assembly.

Loading next visibility...
Identifier
1863, 1965-108A
Orbit
HEO
Country
Flag of USUS
Related business
Manufacturer
Martin Marietta
Mission
Spacecraft
Bus & Motor
TRANSTAGE, Unknown motor
Mass
~2,050 kg wet, 1,950 kg dry
Launch date (UTC)
1965-12-21 (60 years ago)
Launch vehicle
Unknown
Launch site
Air Force Eastern Test Range (AFETR)
Object type
Payload
Rocket body
Debris
Shape & HBR
Unknown
Radar Cross Section
Large (>1 m²)

Expand to show TLE details & history
Last TLE update: 22 hours ago

TLE from 22 hours ago
0 TITAN 3C TRANSTAGE R/B
1 01863U 65108A   25310.85027635  .00011155  00000-0  35762-2 0  9993
2 01863  26.8691  23.7926 6024395 202.8438 111.7958  3.98011753359474
Epoch: 2025-11-06T20:24Z
TLE epoch observation values (Epoch: 2025-11-06T20:24:23.876Z)
Latitude
0.00006°
Longitude
31.39377°
Altitude
17,716.824 km
Speed
3.064 km/s
True Right ascension
01h 35m 11s
True Declination
0° 00' 00"
Sunlit
Object was in daylight at epoch
Visualization orbit readout
Latitude
Unknown
Longitude
Unknown
Altitude
Unknown
Speed
Unknown
Apparent Right ascension
Unknown
Apparent Declination
Unknown
Sunlit
N/A
Visualization observer readout
Local Sidereal Time
14:46:57
Azimuth
Unknown
Elevation
Unknown
Doppler factor
Unknown
Orbital elements
Apogee altitude
20,579.308 km
Perigee altitude
309.925 km
Semi-major axis
16,822.753 km
Eccentricity
0.60244
Inclination
26.8691°
RAAN
23.7926°
Arg. of periapsis
202.8438°
True anomaly
157.15516°
Mean anomaly
111.7958°
Eccentric anomaly
135.84191°
Mean motion
0.99471 °/min
Orbital period
361.91 mins
BSTAR
0.0035762
Loading maneuver chart data...
Computing Atmospheric mass density...

Documentation

Showing up to 5 results
|